Regional Weather Roundup
Issued by NWS San Angelo, TX

Home | Current Version | Previous Version | Text Only | Print | Product List | Glossary On
Versions: 1 2 3 4 5 6 7 8 9 10 11 12 13 14 15 16 17 18 19 20 21 22 23 24 25 26 27 28 29 30 31 32 33 34 35 36 37 38 39 40 41 42 43 44 45 46 47 48 49 50
000
ASUS44 KSJT 010410
RWRSJT
WEST CENTRAL TEXAS REGIONAL WEATHER ROUNDUP
NATIONAL WEATHER SERVICE SAN ANGELO TX
1000 PM CST SAT JAN 31 2015

NOTE: "FAIR" INDICATES FEW OR NO CLOUDS BELOW 12,000 FEET WITH NO
SIGNIFICANT WEATHER AND/OR OBSTRUCTIONS TO VISIBILITY.

TXZ049-054-064>066-071>073-076>078-098-099-113-114-127-128-139-140-
154-155-168>170-010500
...LOCATIONS ACROSS WEST CENTRAL TEXAS...

CITY           SKY/WX    TMP DP  RH WIND       PRES   REMARKS
SAN ANGELO     CLOUDY    58  54  86 S14       29.88S
ABILENE        CLOUDY    53  51  93 S12       29.88S
DYESS AFB      CLOUDY    52  52 100 S6        29.87S
JUNCTION       CLOUDY    59  55  87 CALM      29.90S
SWEETWATER     CLOUDY    53  53 100 SW9       29.91S
BROWNWOOD      CLOUDY    52  52 100 CALM      29.92R FOG
COLEMAN        CLOUDY    52  52 100 S6        29.91S FOG
SONORA         CLOUDY    57  55  94 S12       29.94S
OZONA          CLOUDY    54  52  94 S16G22    29.93S FOG
BRADY          CLOUDY    54  54 100 SE5       29.89S
$$

TEXAS PANHANDLE/OKLAHOMA PANHANDLE

CITY           SKY/WX    TMP DP  RH WIND       PRES   REMARKS
AMARILLO       CLOUDY    41  40  96 S5        29.83S WCI  38
BORGER         CLOUDY    43  39  86 W5        29.82S
CANADIAN       CLOUDY    42  41  95 SW6       29.83F WCI  39
DALHART        CLOUDY    42  37  82 W6        29.82R WCI  38
DUMAS          CLOUDY    39  39  97 SW9       29.81S WCI  33
GUYMON         NOT AVBL
HEREFORD       CLOUDY    44  44  98 SW10      29.83S WCI  39
PAMPA          CLOUDY    38  38  98 S8        29.83S FOG     WCI  32
PERRYTON       CLOUDY    41  39  93 SW10      29.81S WCI  35
$$

SOUTHERN PANHANDLE/SOUTH PLAINS/ROLLING PLAINS

CITY           SKY/WX    TMP DP  RH WIND       PRES   REMARKS
LUBBOCK        MOCLDY    44  44 100 S10       29.85F FOG     WCI  39
SNYDER         DRIZZLE  N/A N/A N/A SW8       29.90R
CHILDRESS      CLOUDY    43  42  97 S6        29.87F FOG     WCI  39
SEMINOLE       CLOUDY    47  47 100 S5        29.89S FOG
$$

PERMIAN BASIN

CITY           SKY/WX    TMP DP  RH WIND       PRES   REMARKS
MIDLAND        CLOUDY    51  49  92 S10       29.88F
ODESSA         CLOUDY    50  48  93 S8        29.89F FOG
WINK           MOCLDY    48  44  86 VRB3      29.87S FOG
$$

FAR WEST/SOUTHWEST MOUNTAINS/TRANS PECOS

CITY           SKY/WX    TMP DP  RH WIND       PRES   REMARKS
ALPINE         PTCLDY    49  41  74 W6        29.98F
DRYDEN           N/A     53  53 100 NW5       29.94R
EL PASO        MOCLDY    54  41  61 CALM      29.91R
FORT STOCKTON  PTCLDY    51  48  89 S9        29.91R
GUADALUPE PASS MOCLDY    44  42  93 W17       29.94R WCI  36
MARFA          PTCLDY    39  37  93 N7        29.96R WCI  34
PECOS          PTCLDY    44  43  95 S3        29.90R FOG
$$

DALLAS/FORT WORTH METROPLEX

CITY           SKY/WX    TMP DP  RH WIND       PRES   REMARKS
DFW AIRPORT    LGT RAIN  51  49  92 SE13      29.89F FOG
FTW MEACHAM    LGT RAIN  52  50  93 SE13      29.89S FOG
DAL-EXECUTIVE  LGT RAIN  52  49  89 SE14      29.90F FOG
GRAND PRAIRIE  CLOUDY    51  51 100 SE6       29.91F
ADDISON        DRIZZLE   51  51 100 SE14      29.91F
MESQUITE       CLOUDY    50  48  91 SE8       29.93F
LANCASTER      CLOUDY    51  48  89 SE8       29.93F
$$

NORTH CENTRAL TEXAS

CITY           SKY/WX    TMP DP  RH WIND       PRES   REMARKS
SHRMAN/DENISON LGT RAIN  48  48  99 SE16      29.90F
GAINESVILLE    RAIN      47  47  97 SE10      29.91F
BRIDGEPORT     RAIN      49  49 100 S3        29.92S
DENTON         LGT RAIN  50  49  96 SE13      29.89F FOG
WAXAHACHIE     RAIN      51  51 100 SE8       29.92F
GRANBURY       DRIZZLE   54  52  94 SE12      29.91S
$$

WESTERN NORTH TEXAS

CITY           SKY/WX    TMP DP  RH WIND       PRES   REMARKS
WICHITA FALLS  LGT RAIN  47  46  97 S12       29.88F FOG
VERNON         CLOUDY    46  43  87 CALM      29.89F
BRECKENRIDGE   CLOUDY    52  51  97 S7        29.88S
COMANCHE       CLOUDY    51  51 100 S5        29.91F
$$

CENTRAL AND SOUTH CENTRAL TEXAS

CITY           SKY/WX    TMP DP  RH WIND       PRES   REMARKS
AUSTIN/BERGSTM CLOUDY    62  62 100 S9        29.94R
WACO           CLOUDY    57  55  93 SE13      29.92F
HILLSBORO      LGT RAIN  54  51  89 SE12      29.93R
TEMPLE         CLOUDY    57  54  88 SE16      29.92R
KILLEEN-GRAY   LGT RAIN  57  57 100 S8        29.91F FOG
FORT HOOD      LGT RAIN  57  57 100 S8        29.91F FOG
GEORGETOWN     CLOUDY    63  59  88 S12G18    29.93S
LAGO VISTA     CLOUDY    61  60  96 S13G20    29.94S FOG
SAN MARCOS     CLOUDY    63  59  88 S6        29.95S
NEW BRAUNFELS  CLOUDY    62  60  93 S5        29.94R
RANDOLPH AFB   CLOUDY    62  61  98 S3        29.94F
SAN ANTONIO    CLOUDY    63  60  90 S6        29.94F
STINSON        CLOUDY    61  59  93 SE3       29.91F
PLEASANTON     NOT AVBL
LA GRANGE      CLOUDY    64  63  95 S5        29.93R
GIDDINGS       CLOUDY    61  59  95 S10G17    29.99R
$$

EAST TEXAS

CITY           SKY/WX    TMP DP  RH WIND       PRES   REMARKS
PARIS          CLOUDY    50  37  62 SE12      29.96F
CLARKSVILLE    NOT AVBL
TYLER          LGT RAIN  55  48  77 SE17G28   29.96F
LONGVIEW       CLOUDY    56  46  69 SE14      29.99F
PALESTINE      LGT RAIN  56  53  89 SE10G25   29.96F
NACOGDOCHES    CLOUDY    55  46  71 SE10      30.03F
$$

TEXAS HILL COUNTRY AND EDWARDS PLATEAU

CITY           SKY/WX    TMP DP  RH WIND       PRES   REMARKS
LLANO          CLOUDY    54  54 100 CALM      29.95S FOG
HORSESHOE BAY    N/A    N/A N/A N/A S7        29.92F
KERRVILLE      CLOUDY    59  57  95 SE8       29.94R
FREDERICKSBRG  CLOUDY    59  56  92 S8G17     29.93R
ROCKSPRINGS    NOT AVBL
HONDO          CLOUDY    58  58 100 E6        29.94S FOG
UVALDE         FOG       56  56 100 NE5       29.92S VSB 1/4
DEL RIO        CLOUDY    58  56  93 E7        29.88S FOG
$$

SOUTHEAST TEXAS

CITY           SKY/WX    TMP DP  RH WIND       PRES   REMARKS
COLLEGE STN    CLOUDY    59  57  93 SE13G22   29.95F
CALDWELL       CLOUDY    57  57 100 SE13      29.99R FOG
CROCKETT       CLOUDY    59  55  88 SE8       30.03F
BRENHAM        CLOUDY    61  59  94 SE16G26   29.93F
HUNTSVILLE     CLOUDY    58  54  86 SE7       29.99F
CONROE         LGT RAIN  57  54  89 SE8       30.02F
HOUSTON BUSH   CLOUDY    59  56  89 SE7       30.03S
HOUSTON HOBBY  CLOUDY    60  58  92 E7        30.02F
PERLAND        CLOUDY    61  58  90 E7        30.04F
WHARTON        LGT RAIN  61  60  96 E7        29.99F
$$

THE UPPER TEXAS COAST

CITY           SKY/WX    TMP DP  RH WIND       PRES   REMARKS
ORANGE         CLOUDY    60  55  82 E14G21    30.07F
PORT ARTHUR    CLOUDY    60  55  83 E12       30.05F
GALVESTON      CLOUDY    61  60  97 SE16      30.04S
ANGLETON       CLOUDY    61  61 100 E5        30.01F
BAY CITY       CLOUDY    63  63 100 SE8       29.99F
$$

TEXAS COASTAL BEND, RIO GRANDE PLAINS DEEP SOUTH TEXAS

CITY           SKY/WX    TMP DP  RH WIND       PRES   REMARKS
VICTORIA       NOT AVBL
BEEVILLE       FAIR      64  63  96 S15       29.92R
ROCKPORT       CLOUDY    65  61  87 SE15G23   29.92F
PORT ARANSAS   CLOUDY    63  61  96 SE15      29.94F
PORT LAVACA    CLOUDY    64  63  97 SE9       29.97F
CORPUS CHRISTI LGT RAIN  66  61  84 SE26G33   29.89F
KINGSVILLE NAS LGT RAIN  67  65  93 SE20G28   29.90F
COTULLA        MOCLDY    61  59  93 E3        29.91S
LAREDO         PTCLDY    62  58  87 SW5       29.93R
BROWNSVILLE    CLOUDY    65  62  90 SE7       30.00S
PORT ISABEL    CLOUDY    66  63  90 SE7       29.99S
HEBBRONVILLE   MOCLDY    65  60  85 S14G20    29.93R
MCALLEN        CLOUDY    66  62  87 SE12      29.96F
WESLACO        DRIZZLE   65  62  89 SE7       29.97S
FALFURRIAS     CLOUDY    66  61  84 S16G25    29.91S
EDINBURG       CLOUDY    69  62  78 SE10      29.97R
$$



USA.gov is the U.S. government's official web portal to all federal, state and local government web resources and services.